Flag for Colombia Weather past 2 weeks in Manizales, Colombia

Now
57 °F

Fog.


Feels Like: 57 °F
Forecast: 57 / 68 °F
Wind: No wind

Location: Rionegro / J. M. Cordova


UV Index: 3 (Moderate)

Visibility: 4 mi


Pressure: 30.26 "Hg

Humidity: 94%

Dew point: 55 °F

Location of ManizalesLocation

Historic Weather in Manizales

°F

Manizales temperature yesterday

Maximum temperature yesterday: 70 °F (at 12:00 PM)
Minimum temperature yesterday: 57 °F (at 7:00 AM)
Average temperature yesterday: 63 °F

Past Weeks' High & Low Weather Summary

 TemperatureHumidityPressure
High75 °F (Apr 13, 1:00 PM)100% (Apr 8, 7:00 AM)30.37 "Hg (Apr 8, 7:00 AM)
Low52 °F (Apr 17, 11:00 PM)44% (Apr 13, 1:00 PM)30.14 "Hg (Apr 14, 4:00 PM)
Average63 °F81%30.26 "Hg
* Reported Apr 8 2:00 AM — Apr 23 2:00 AM, Manizales, Weather by CustomWeather, © 2014

Note: Actual official high and low records may vary slightly from our data, if they occured in-between our weather recording intervals... More about our weather records

Advertising

Historic Weather Conditions — Data for Previous 24 hours

 ConditionsComfort  
Time TempWeatherWind HumidityBarometerVisibility
2:00 AM
Apr 23
57 °FFog.No wind94%30.27 "Hg4 mi
1:00 AM57 °FPassing clouds.3 mph94%30.27 "Hg5 mi
12:00 AM59 °FPassing clouds.No wind88%30.27 "HgN/A
11:00 PM
Apr 22
61 °FPartly cloudy.3 mph94%30.28 "HgN/A
10:00 PM61 °FPartly cloudy.2 mph94%30.25 "HgN/A
9:00 PM63 °FPassing clouds.5 mph94%30.27 "HgN/A
8:00 PM64 °FPassing clouds.5 mph88%30.24 "HgN/A
7:00 PM64 °FPartly cloudy.5 mph94%30.23 "HgN/A
6:00 PM66 °FPartly sunny.5 mph64%30.21 "HgN/A
5:00 PM68 °FPartly sunny.2 mph60%30.18 "HgN/A
4:00 PM68 °FPartly sunny.2 mph56%30.18 "HgN/A
3:00 PM66 °FBroken clouds.3 mph64%30.19 "HgN/A
2:00 PM66 °FDrizzle. Partly sunny.7 mph64%30.23 "HgN/A
1:00 PM70 °FPartly sunny.7 mph57%30.25 "HgN/A
12:00 PM70 °FPartly sunny.2 mph57%30.29 "HgN/A
11:00 AM68 °FBroken clouds.2 mph64%30.31 "HgN/A
10:00 AM64 °FBroken clouds.No wind78%30.32 "HgN/A
9:00 AM63 °FBroken clouds.No wind77%30.33 "HgN/A
8:00 AM59 °FPartly sunny.No wind94%30.31 "HgN/A
7:00 AM57 °FPartly sunny.No wind100%30.29 "HgN/A
6:00 AM59 °FBroken clouds.No wind94%30.27 "HgN/A
5:00 AM59 °FPartly cloudy.No wind94%30.27 "Hg6 mi
4:00 AM59 °FPartly cloudy.No wind100%30.27 "Hg5 mi
3:00 AM59 °FPartly cloudy.No wind100%30.27 "Hg5 mi
Weather by CustomWeather, © 2014

See weather overview